Wellsville, NY

6:16 PM EDT on September 20, 2017 (GMT -0400)
Wellsville Municipal-Tarantine

Weather History for KELZ - November, 2013

Change the Weather History Date:

Saturday, November 23, 2013

  Actual Average (KDSV) Record (KDSV)
Temperature  
Mean Temperature 22 °F -  
Max Temperature 33 °F 43 °F 70 °F (1953)
Min Temperature 12 °F 28 °F 9 °F (1971)
Degree Days  
Heating Degree Days 42    
Moisture  
Dew Point 15 °F    
Average Humidity 74    
Maximum Humidity 86    
Minimum Humidity 54    
Precipitation  
Precipitation 0.01 in - - ()
Sea Level Pressure  
Sea Level Pressure 30.05 in    
Wind  
Wind Speed 18 mph (NW)    
Max Wind Speed 29 mph    
Max Gust Speed 44 mph    
Visibility 5 miles    
Events Snow    
Averages and records for this station are not official NWS values.
T = Trace of Precipitation, MM = Missing Value Source: NWS Daily Summary

Daily Weather History Graph

Daily Weather History Graph

Search for Another Location

Airport or City:

Trip Planner

Search our weather history database for the weather conditions in past years. The results will help you decide how hot, cold, wet, or windy it might be!

Date:

Astronomy

Nov. 23, 2013 Rise Set
Actual Time 7:12 AM EST 4:44 PM EST
Civil Twilight 6:41 AM EST 5:15 PM EST
Nautical Twilight 6:06 AM EST 5:49 PM EST
Astronomical Twilight 5:33 AM EST 6:22 PM EST
Moon 10:13 PM EST (11/23) 11:25 AM EST (11/23)
Length of Visible Light 10h 33m
Length of Day
9h 32m
Waning Gibbous, 70% of the Moon is Illuminated
Nov 23
Waning Gibbous
Nov 25
Last Quarter
Dec 2
New
Dec 9
First Quarter
Dec 17
Full

Hourly Weather History & Observations

Time (EST) Temp. Windchill Dew Point Humidity Pressure Visibility Wind Dir Wind Speed Gust Speed Precip Events Conditions
12:39 AM 30.2 °F 19.8 °F 24.8 °F 80% 30.11 in 10.0 mi NW 13.8 mph - N/A   Scattered Clouds
12:56 AM 30.0 °F 17.9 °F 23.0 °F 75% 30.16 in 10.0 mi NW 18.4 mph 25.3 mph N/A   Partly Cloudy
1:56 AM 28.0 °F 15.7 °F 21.9 °F 78% 30.18 in 10.0 mi NW 17.3 mph 24.2 mph N/A   Partly Cloudy
2:56 AM 27.0 °F 16.1 °F 19.9 °F 75% 30.19 in 10.0 mi NW 12.7 mph 21.9 mph N/A   Partly Cloudy
3:30 AM 26.6 °F 15.7 °F 19.4 °F 74% 30.13 in 10.0 mi NW 12.7 mph - N/A   Mostly Cloudy
3:56 AM 27.0 °F 16.1 °F 19.9 °F 75% 30.18 in 10.0 mi NW 12.7 mph - N/A   Overcast
4:56 AM 26.1 °F 14.0 °F 19.0 °F 75% 30.17 in 10.0 mi WNW 15.0 mph - N/A   Overcast
5:56 AM 26.1 °F 14.5 °F 19.0 °F 75% 30.16 in 10.0 mi WNW 13.8 mph - N/A   Overcast
6:56 AM 27.0 °F 16.1 °F 19.9 °F 75% 30.17 in 10.0 mi WNW 12.7 mph - N/A   Overcast
7:56 AM 27.0 °F 21.6 °F 19.9 °F 75% 30.16 in 10.0 mi WNW 4.6 mph 17.3 mph N/A   Overcast
8:56 AM 28.9 °F 21.1 °F 19.9 °F 69% 30.13 in 10.0 mi WSW 8.1 mph - N/A   Overcast
9:56 AM 30.9 °F 19.4 °F 19.9 °F 64% 30.11 in 10.0 mi West 17.3 mph 23.0 mph N/A   Overcast
10:41 AM 32.0 °F 20.1 °F 19.4 °F 60% 30.02 in 10.0 mi West 19.6 mph 28.8 mph N/A   Mostly Cloudy
10:56 AM 33.1 °F 21.5 °F 19.9 °F 59% 30.08 in 10.0 mi WSW 19.6 mph 29.9 mph N/A   Mostly Cloudy
11:56 AM 32.0 °F 18.6 °F 17.1 °F 54% 30.04 in 10.0 mi West 25.3 mph 40.3 mph N/A   Mostly Cloudy
12:41 PM 30.2 °F 16.5 °F 19.4 °F 64% 29.97 in 1.2 mi WNW 24.2 mph 29.9 mph 0.00 in Snow Light Snow
12:46 PM 28.4 °F 15.1 °F 23.0 °F 80% 29.97 in 0.2 mi WNW 20.7 mph 29.9 mph 0.00 in Snow Heavy Snow
12:52 PM 28.4 °F 15.1 °F 24.8 °F 86% 29.96 in 0.5 mi WNW 20.7 mph 29.9 mph 0.00 in Snow Snow
12:56 PM 28.9 °F 15.8 °F 23.0 °F 78% 30.03 in 1.2 mi WNW 20.7 mph 27.6 mph 0.00 in Snow Light Snow
12:58 PM 28.4 °F 15.4 °F 21.2 °F 74% 29.96 in 3.0 mi WNW 19.6 mph 27.6 mph 0.00 in Snow Light Snow
1:10 PM 30.2 °F 19.3 °F 19.4 °F 64% 29.95 in 10.0 mi West 15.0 mph 31.1 mph 0.00 in   Overcast
1:56 PM 30.0 °F 16.0 °F 17.1 °F 59% 30.01 in 6.0 mi WNW 25.3 mph 34.5 mph 0.00 in Snow Light Snow
2:20 PM 28.4 °F 15.4 °F 19.4 °F 69% 29.94 in 2.5 mi WNW 19.6 mph 29.9 mph 0.00 in Snow Light Snow
2:24 PM 26.6 °F 11.4 °F 19.4 °F 74% 29.95 in 0.8 mi West 25.3 mph 32.2 mph 0.00 in Snow Light Snow
2:29 PM 26.6 °F 13.4 °F 21.2 °F 80% 29.95 in 0.2 mi WNW 18.4 mph 32.2 mph 0.00 in Snow Heavy Snow
2:44 PM 24.8 °F 9.0 °F 19.4 °F 80% 29.96 in 1.0 mi NW 25.3 mph 34.5 mph 0.00 in Snow Light Snow
2:48 PM 24.8 °F 11.1 °F 19.4 °F 80% 29.95 in 2.0 mi NW 18.4 mph 34.5 mph 0.00 in Snow Light Snow
2:56 PM 25.0 °F 11.7 °F 17.1 °F 72% 30.04 in 8.0 mi NW 17.3 mph 29.9 mph 0.00 in   Overcast
3:09 PM 24.8 °F 10.7 °F 17.6 °F 74% 29.96 in 6.0 mi NW 19.6 mph 34.5 mph 0.00 in Snow Light Snow
3:20 PM 24.8 °F 8.7 °F 17.6 °F 74% 29.97 in 2.5 mi WNW 26.5 mph 38.0 mph 0.00 in Snow Light Snow
3:28 PM 24.8 °F 8.7 °F 17.6 °F 74% 29.97 in 1.2 mi NW 26.5 mph 35.7 mph 0.00 in Snow Light Snow
3:35 PM 24.8 °F 8.1 °F 15.8 °F 69% 29.97 in 3.0 mi NW 28.8 mph 40.3 mph 0.01 in Snow Light Snow
3:39 PM 24.8 °F 8.1 °F 15.8 °F 69% 29.98 in 1.8 mi NW 28.8 mph 43.7 mph 0.01 in Snow Light Snow
3:52 PM 23.0 °F 8.0 °F 15.8 °F 74% 29.98 in 3.0 mi NW 20.7 mph 34.5 mph 0.01 in Snow Light Snow
3:56 PM 23.0 °F 8.7 °F 16.0 °F 74% 30.07 in 6.0 mi NW 18.4 mph 34.5 mph 0.01 in Snow Light Snow
4:32 PM 23.0 °F 9.2 °F 17.6 °F 80% 29.99 in 1.8 mi WNW 17.3 mph 23.0 mph 0.00 in Snow Light Snow
4:43 PM 21.2 °F 5.2 °F 17.6 °F 86% 29.99 in 0.8 mi NW 21.9 mph 32.2 mph 0.00 in Snow Light Snow
4:47 PM 21.2 °F 6.8 °F 15.8 °F 80% 29.99 in 1.0 mi NW 17.3 mph 32.2 mph 0.00 in Snow Light Snow
4:52 PM 21.2 °F 5.6 °F 15.8 °F 80% 29.99 in 2.0 mi NW 20.7 mph 31.1 mph 0.00 in Snow Light Snow
4:56 PM 21.9 °F 5.5 °F 15.1 °F 75% 30.09 in 4.0 mi WNW 24.2 mph 29.9 mph 0.00 in Snow Light Snow
4:59 PM 21.2 °F 6.0 °F 15.8 °F 80% 30.00 in 2.5 mi NW 19.6 mph 33.4 mph 0.00 in Snow Light Snow
5:07 PM 21.2 °F 6.0 °F 15.8 °F 80% 30.00 in 1.5 mi WNW 19.6 mph 29.9 mph 0.00 in Snow Light Snow
5:11 PM 21.2 °F 4.5 °F 15.8 °F 80% 30.00 in 3.0 mi WNW 24.2 mph 31.1 mph 0.00 in Snow Light Snow
5:22 PM 21.2 °F 5.6 °F 15.8 °F 80% 30.00 in 1.5 mi NW 20.7 mph 31.1 mph 0.00 in Snow Light Snow
5:25 PM 21.2 °F 6.0 °F 15.8 °F 80% 30.01 in 0.8 mi NW 19.6 mph 31.1 mph 0.00 in Snow Light Snow
5:35 PM 21.2 °F 4.5 °F 14.0 °F 74% 30.01 in 1.0 mi NW 24.2 mph 35.7 mph 0.00 in Snow Light Snow
5:39 PM 21.2 °F 5.2 °F 14.0 °F 74% 30.01 in 4.0 mi NW 21.9 mph 35.7 mph 0.00 in Snow Light Snow
5:56 PM 21.0 °F 5.7 °F 12.0 °F 68% 30.10 in 7.0 mi WNW 19.6 mph 26.5 mph 0.00 in   Mostly Cloudy
6:01 PM 19.4 °F 4.1 °F 12.2 °F 74% 30.02 in 1.8 mi NW 18.4 mph 27.6 mph 0.00 in Snow Light Snow
6:06 PM 19.4 °F 4.5 °F 14.0 °F 80% 30.02 in 0.5 mi NW 17.3 mph 27.6 mph 0.00 in Snow Snow
6:20 PM 19.4 °F 4.5 °F 14.0 °F 80% 30.03 in 2.5 mi WNW 17.3 mph 29.9 mph 0.00 in Snow Light Snow
6:26 PM 19.4 °F 3.2 °F 12.2 °F 74% 30.03 in 7.0 mi NW 20.7 mph 29.9 mph 0.00 in Snow Light Snow
6:33 PM 19.4 °F 1.1 °F 8.6 °F 63% 30.03 in 9.0 mi NW 27.6 mph 40.3 mph 0.00 in   Overcast
6:40 PM 19.4 °F 2.5 °F 6.8 °F 58% 30.03 in 10.0 mi NW 23.0 mph 39.1 mph 0.00 in   Overcast
6:56 PM 19.0 °F 3.2 °F 6.1 °F 57% 30.13 in 10.0 mi NW 19.6 mph 38.0 mph 0.00 in   Mostly Cloudy
7:38 PM 17.6 °F 2.7 °F 8.6 °F 68% 30.05 in 2.5 mi NW 16.1 mph 29.9 mph 0.00 in Snow Light Snow
7:46 PM 17.6 °F 1.3 °F 10.4 °F 73% 30.05 in 1.2 mi NW 19.6 mph 27.6 mph 0.00 in Snow Light Snow
7:51 PM 15.8 °F -0.6 °F 8.6 °F 73% 30.06 in 3.0 mi NW 18.4 mph 27.6 mph 0.00 in Snow Light Snow
7:56 PM 16.0 °F -2.8 °F 8.1 °F 71% 30.15 in 8.0 mi WNW 25.3 mph 32.2 mph 0.00 in   Overcast
8:03 PM 15.8 °F -0.6 °F 6.8 °F 68% 30.06 in 10.0 mi NW 18.4 mph 33.4 mph 0.00 in   Mostly Cloudy
8:32 PM 15.8 °F -3.4 °F 6.8 °F 68% 30.06 in 2.5 mi WNW 26.5 mph 34.5 mph 0.00 in Snow Light Snow
8:39 PM 15.8 °F -2.3 °F 8.6 °F 73% 30.06 in 0.8 mi NW 23.0 mph 39.1 mph 0.00 in Snow Light Snow
8:56 PM 15.1 °F -2.5 °F 10.0 °F 80% 30.16 in 0.5 mi NW 20.7 mph 35.7 mph 0.00 in Snow Snow
9:14 PM 15.8 °F -1.1 °F 10.4 °F 79% 30.07 in 1.0 mi NW 19.6 mph 33.4 mph 0.00 in Snow Light Snow
9:24 PM 15.8 °F -0.6 °F 10.4 °F 79% 30.07 in 0.8 mi NW 18.4 mph 31.1 mph 0.00 in Snow Light Snow
9:32 PM 15.8 °F -1.9 °F 8.6 °F 73% 30.07 in 1.0 mi NW 21.9 mph 32.2 mph 0.00 in Snow Light Snow
9:51 PM 14.0 °F -3.0 °F 8.6 °F 79% 30.07 in 1.2 mi NW 18.4 mph 27.6 mph 0.00 in Snow Light Snow
9:56 PM 14.0 °F -2.5 °F 9.0 °F 80% 30.17 in 1.5 mi NW 17.3 mph 27.6 mph 0.00 in Snow Light Snow
10:04 PM 14.0 °F -3.0 °F 8.6 °F 79% 30.07 in 3.0 mi NW 18.4 mph 25.3 mph 0.00 in Snow Light Snow
10:41 PM 14.0 °F 2.0 °F 8.6 °F 79% 30.07 in 1.8 mi NW 9.2 mph - 0.00 in Snow Light Snow
10:56 PM 14.0 °F 1.2 °F 9.0 °F 80% 30.17 in 1.2 mi NNW 10.4 mph - 0.00 in Snow Light Snow
11:17 PM 14.0 °F -0.8 °F 8.6 °F 79% 30.07 in 2.0 mi NW 13.8 mph 25.3 mph 0.00 in Snow Light Snow
11:29 PM 12.2 °F -4.3 °F 6.8 °F 79% 30.07 in 6.0 mi NW 16.1 mph 31.1 mph 0.00 in Snow Light Snow
11:40 PM 14.0 °F -3.4 °F 5.0 °F 67% 30.08 in 10.0 mi NW 19.6 mph 29.9 mph 0.00 in   Mostly Cloudy
11:56 PM 12.9 °F -4.4 °F 3.0 °F 65% 30.17 in 10.0 mi NW 18.4 mph 25.3 mph 0.00 in   Partly Cloudy